Content
SEND FEEDBACK

Daily
Averages
Monthly
Summary
United States of America

INARAJAN, GUAM


Home > North America > United States > Guam
Elevation: 280 feet     Latitude: 13 18N     Longitude: 144 44E

WEATHER
 
SELECT A DAY
Number of Records: 342,273;   Date Range: 1/1/95 - 8/30/14
 
SHARE

PRINT THIS DATA

[ ← Previous Day ]
WEATHER ALMANAC - AUGUST 20, 2013
[ Next Day → ]
[ °C ]   °F
Weather ElementAverageHighLow
Temperature81.4 °F86.4 °F (9:55 am)77 °F (5:18 am)
Dewpoint76.3 °F78.8 °F (10:04 am)73.4 °F (5:18 am)
Humidity84.9 %94 % (4:39 am)74 % (8:51 am)
Barometer29.77 in29.82 in (9:55 am)29.74 in (3:29 am)
Wind Speed9 mph13.8 mph (8:51 am)
Weather ElementAverage
Visibility9.8 mi
Wind DirectionE (84.9 °)

Weather ElementTotal
Precipitation---
Cooling Degree Days16.7 (Base 65)
Growing Degree Days31.7 (Base 50)
Averaged from 51 records on August 20, 2013
WEATHER CONDITIONS BREAKOUT
WIND DIRECTION BREAKOUT
WEATHER BY HOUR - AUGUST 20, 2013
[ °C ]   °F
Local TimeTemperatureDewpointHumidityBarometerVisibilityWind DirectionWind SpeedGust SpeedPrecipitationEventsConditions
12:36 AM80.6 °F75.2 °F84 %29.80 in10.0 miEast (90°)6.9 mphScattered Clouds
12:55 AM80.8 °F76.3 °F86 %29.80 in10.0 miENE (70°)8.1 mphScattered Clouds
1:00 AM80.6 °F75.2 °F84 %29.79 in10.0 miENE (70°)9.2 mphMostly Cloudy
1:08 AM80.6 °F77.0 °F89 %29.79 in10.0 miEast (100°)8.1 mphScattered Clouds
1:55 AM79.3 °F75.7 °F89 %29.77 in10.0 miEast (100°)6.9 mphClear
2:55 AM79.9 °F76.3 °F89 %29.76 in10.0 miEast (100°)8.1 mphClear
3:29 AM80.6 °F77.0 °F89 %29.74 in10.0 miESE (110°)5.8 mphMostly Cloudy
3:34 AM80.6 °F77.0 °F89 %29.74 in10.0 miESE (110°)8.1 mphScattered Clouds
3:55 AM79.3 °F76.8 °F92 %29.75 in10.0 miEast (80°)5.8 mphPartly Cloudy
4:31 AM80.6 °F77.0 °F89 %29.75 in10.0 miEast (80°)6.9 mphMostly Cloudy
4:33 AM80.6 °F77.0 °F89 %29.75 in10.0 miEast (80°)6.9 mphScattered Clouds
4:34 AM80.6 °F77.0 °F89 %29.75 in10.0 miEast (80°)6.9 mphMostly Cloudy
4:38 AM80.6 °F77.0 °F89 %29.75 in10.0 miENE (70°)8.1 mphScattered Clouds
4:39 AM78.8 °F77.0 °F94 %29.75 in10.0 miENE (70°)6.9 mphMostly Cloudy
4:52 AM78.8 °F75.2 °F89 %29.75 in10.0 miEast (90°)8.1 mphScattered Clouds
4:55 AM78.1 °F75.2 °F91 %29.75 in10.0 miEast (80°)8.1 mphScattered Clouds
5:07 AM78.8 °F75.2 °F89 %29.75 in10.0 miEast (80°)8.1 mphMostly Cloudy
5:09 AM78.8 °F75.2 °F89 %29.75 in10.0 miEast (80°)6.9 mphMostly Cloudy
5:14 AM78.8 °F75.2 °F89 %29.75 in10.0 miEast (90°)6.9 mphMostly Cloudy
5:18 AM77.0 °F73.4 °F89 %29.75 in10.0 miEast (80°)6.9 mphScattered Clouds
5:55 AM78.8 °F74.7 °F87 %29.76 in10.0 miEast (100°)9.2 mphScattered Clouds
5:57 AM78.8 °F75.2 °F89 %29.76 in10.0 miEast (90°)9.2 mphLight Drizzle
6:11 AM78.8 °F75.2 °F89 %29.76 in10.0 miENE (70°)10.4 mphMostly Cloudy
6:55 AM81.3 °F76.6 °F86 %29.78 in10.0 miEast (90°)9.2 mph0.00 inScattered Clouds
7:12 AM82.4 °F77.0 °F84 %29.78 in10.0 miEast (90°)10.4 mphMostly Cloudy
7:18 AM82.4 °F77.0 °F84 %29.78 in10.0 miEast (80°)11.5 mphScattered Clouds
7:20 AM82.4 °F77.0 °F84 %29.78 in10.0 miEast (90°)9.2 mphMostly Cloudy
7:23 AM82.4 °F77.0 °F84 %29.78 in10.0 miEast (90°)10.4 mphScattered Clouds
7:55 AM79.9 °F73.6 °F81 %29.79 in10.0 miEast (80°)9.2 mphPartly Cloudy
8:42 AM82.4 °F75.2 °F79 %29.81 in10.0 miEast (80°)11.5 mphMostly Cloudy
8:51 AM84.2 °F75.2 °F74 %29.81 in10.0 miEast (90°)13.8 mphScattered Clouds
8:55 AM83.8 °F76.1 °F77 %29.81 in10.0 miEast (80°)11.5 mphScattered Clouds
9:55 AM86.4 °F77.7 °F75 %29.82 in10.0 miEast (80°)9.2 mphPartly Cloudy
10:04 AM86.0 °F78.8 °F79 %29.82 in10.0 miEast (90°)9.2 mphMostly Cloudy
10:12 AM86.0 °F77.0 °F74 %29.82 in10.0 miEast (80°)12.7 mphScattered Clouds
10:55 AM85.5 °F76.8 °F75 %29.81 in10.0 miESE (110°)10.4 mphClear
11:55 AM85.5 °F77.5 °F77 %29.80 in10.0 miESE (120°)11.5 mphScattered Clouds
12:55 PM85.3 °F76.3 °F74 %29.78 in10.0 miSE (130°)9.2 mphMostly Cloudy
1:55 PM85.1 °F77.2 °F77 %29.76 in10.0 miEast (80°)6.9 mphPartly Cloudy
2:50 PM82.4 °F77.0 °F84 %29.75 in5.0 miEast (90°)9.2 mphRainLight Rain
2:55 PM82.4 °F77.5 °F85 %29.75 in5.0 miESE (110°)6.9 mph0.00 inRainLight Rain
3:02 PM82.4 °F77.0 °F84 %29.75 in10.0 miESE (120°)8.1 mphPartly Cloudy
3:55 PM82.8 °F75.6 °F79 %29.74 in10.0 miENE (70°)12.7 mph0.00 inScattered Clouds
4:55 PM82.4 °F75.6 °F80 %29.75 in10.0 miENE (70°)11.5 mphClear
5:55 PM82.2 °F76.6 °F83 %29.75 in10.0 miENE (60°)10.4 mphClear
6:55 PM80.8 °F76.8 °F88 %29.78 in10.0 miENE (60°)9.2 mphPartly Cloudy
7:55 PM80.8 °F76.6 °F87 %29.79 in10.0 miENE (60°)8.1 mphPartly Cloudy
8:55 PM79.7 °F77.0 °F91 %29.80 in10.0 miENE (70°)9.2 mphClear
9:55 PM81.0 °F76.8 °F87 %29.81 in10.0 miENE (60°)10.4 mphClear
10:55 PM80.6 °F75.6 °F85 %29.82 in10.0 miENE (60°)10.4 mphPartly Cloudy
11:55 PM80.2 °F76.6 °F89 %29.79 in10.0 miENE (70°)11.5 mphPartly Cloudy
Hourly data recorded from PGUA, located miles away from Inarajan, Guam







STORIES FROM OUR PARTNERS